Cyclone, PA

6:15 AM EDT on July 30, 2016 (GMT -0400)
Bradford Regional

Weather History for KBFD - February, 2014

Change the Weather History Date:

Thursday, February 20, 2014

  Actual Average Record
Temperature  
Mean Temperature 33 °F 24 °F  
Max Temperature 42 °F 34 °F 58 °F (2016)
Min Temperature 23 °F 15 °F -15 °F (2015)
Degree Days  
Heating Degree Days 32 35  
Month to date heating degree days 917 730  
Since 1 July heating degree days 5295 5141  
Cooling Degree Days 0 0  
Month to date cooling degree days 0 0  
Year to date cooling degree days 0 0  
Moisture  
Dew Point 26 °F    
Average Humidity 67    
Maximum Humidity 92    
Minimum Humidity 41    
Precipitation  
Precipitation 0.40 in 0.07 in 0.62 in (1963)
Month to date precipitation 1.20 1.65  
Year to date precipitation 3.14 4.94  
Sea Level Pressure  
Sea Level Pressure 30.02 in    
Wind  
Wind Speed 7 mph (SSE)    
Max Wind Speed 18 mph    
Max Gust Speed 28 mph    
Visibility 4 miles    
Events Fog , Rain    
T = Trace of Precipitation, MM = Missing Value Source: NWS Daily Summary

Daily Weather History Graph

Daily Weather History Graph

Search for Another Location

Airport or City:

Trip Planner

Search our weather history database for the weather conditions in past years. The results will help you decide how hot, cold, wet, or windy it might be!

Date:

Astronomy

Feb. 20, 2014 Rise Set
Actual Time 7:03 AM EST 5:54 PM EST
Civil Twilight 6:34 AM EST 6:22 PM EST
Nautical Twilight 6:02 AM EST 6:54 PM EST
Astronomical Twilight 5:30 AM EST 7:26 PM EST
Moon 11:52 PM EST (2/20) 9:39 AM EST (2/20)
Length of Visible Light 11h 47m
Length of Day
10h 50m
Waning Gibbous, 71% of the Moon is Illuminated
Feb 20
Waning Gibbous
Feb 22
Last Quarter
Mar 1
New
Mar 8
First Quarter
Mar 16
Full

Hourly Weather History & Observations

Time (EST) Temp. Windchill Dew Point Humidity Pressure Visibility Wind Dir Wind Speed Gust Speed Precip Events Conditions
12:05 AM 28.9 °F 23.9 °F 25.0 °F 85% 30.04 in 7.0 mi Variable 4.6 mph - N/A   Scattered Clouds
12:29 AM 30.0 °F 25.2 °F 26.1 °F 85% 30.04 in 6.0 mi West 4.6 mph - N/A   Mostly Cloudy
12:53 AM 30.0 °F 26.5 °F 26.1 °F 85% 30.08 in 5.0 mi Variable 3.5 mph - N/A   Mostly Cloudy
1:14 AM 28.9 °F - 26.1 °F 89% 30.04 in 5.0 mi Calm Calm - N/A   Scattered Clouds
1:39 AM 26.1 °F - 21.9 °F 84% 30.04 in 2.0 mi Calm Calm - N/A   Clear
1:53 AM 24.1 °F - 21.0 °F 88% 30.09 in 1.0 mi Calm Calm - N/A   Clear
1:55 AM 24.1 °F - 21.0 °F 88% 30.04 in 0.5 mi Calm Calm - N/A Fog Light Freezing Fog
2:05 AM 25.0 °F - 21.9 °F 88% 30.04 in 0.2 mi Calm Calm - N/A Fog Light Freezing Fog
2:10 AM 26.1 °F - 23.0 °F 88% 30.05 in 1.0 mi Calm Calm - N/A   Mist
2:21 AM 24.1 °F - 21.0 °F 88% 30.05 in 0.2 mi Calm Calm - N/A Fog Light Freezing Fog
2:28 AM 24.1 °F - 21.0 °F 88% 30.05 in 1.0 mi Calm Calm - N/A   Mist
2:36 AM 26.1 °F - 23.0 °F 88% 30.06 in 1.8 mi Calm Calm - N/A   Mostly Cloudy
2:44 AM 27.0 °F - 24.1 °F 89% 30.06 in 2.5 mi Calm Calm - N/A   Overcast
2:53 AM 28.0 °F - 26.1 °F 92% 30.11 in 2.0 mi Calm Calm - N/A   Overcast
3:01 AM 28.0 °F - 26.1 °F 92% 30.06 in 1.8 mi Calm Calm - N/A   Overcast
3:53 AM 28.0 °F - 26.1 °F 92% 30.14 in 1.2 mi Calm Calm - N/A   Overcast
4:29 AM 28.0 °F 24.2 °F 25.0 °F 88% 30.08 in 0.8 mi South 3.5 mph - N/A   Overcast
4:39 AM 28.0 °F 20.8 °F 25.0 °F 88% 30.09 in 1.0 mi South 6.9 mph - N/A   Overcast
4:53 AM 28.0 °F 22.8 °F 25.0 °F 88% 30.14 in 1.2 mi South 4.6 mph - N/A   Overcast
5:21 AM 27.0 °F 20.5 °F 25.0 °F 92% 30.09 in 0.8 mi South 5.8 mph - N/A   Overcast
5:44 AM 27.0 °F 21.6 °F 25.0 °F 92% 30.08 in 1.0 mi South 4.6 mph - N/A   Overcast
5:53 AM 27.0 °F 23.0 °F 24.1 °F 89% 30.15 in 1.5 mi South 3.5 mph - N/A   Overcast
6:38 AM 26.1 °F 19.4 °F 23.0 °F 88% 30.10 in 0.5 mi South 5.8 mph - N/A Fog Light Freezing Fog
6:53 AM 26.1 °F 20.5 °F 24.1 °F 92% 30.16 in 0.8 mi SE 4.6 mph - N/A   Mist
7:13 AM 27.0 °F 23.0 °F 25.0 °F 92% 30.10 in 0.2 mi SE 3.5 mph - N/A Fog Light Freezing Fog
7:53 AM 28.0 °F 21.7 °F 26.1 °F 92% 30.16 in 0.2 mi SSE 5.8 mph - N/A Fog Light Freezing Fog
8:03 AM 28.9 °F 23.9 °F 26.1 °F 89% 30.10 in 0.8 mi SSE 4.6 mph - N/A   Overcast
8:15 AM 28.9 °F 22.8 °F 26.1 °F 89% 30.10 in 1.0 mi SSE 5.8 mph - N/A   Overcast
8:53 AM 28.9 °F 21.1 °F 26.1 °F 89% 30.14 in 1.2 mi SE 8.1 mph - N/A   Overcast
9:16 AM 28.9 °F 21.1 °F 27.0 °F 92% 30.07 in 2.5 mi ESE 8.1 mph - N/A   Mostly Cloudy
9:21 AM 30.0 °F 22.4 °F 27.0 °F 88% 30.06 in 2.5 mi ESE 8.1 mph - N/A   Scattered Clouds
9:28 AM 30.0 °F 24.1 °F 27.0 °F 88% 30.07 in 3.0 mi SE 5.8 mph - N/A   Partly Cloudy
9:53 AM 30.9 °F 25.2 °F 26.1 °F 82% 30.12 in 7.0 mi SE 5.8 mph - N/A   Clear
10:53 AM 36.0 °F 28.5 °F 21.9 °F 57% 30.07 in 10.0 mi SE 10.4 mph - N/A   Clear
11:53 AM 39.9 °F 33.4 °F 19.0 °F 43% 30.03 in 10.0 mi SE 10.4 mph - N/A   Clear
12:53 PM 41.0 °F 35.2 °F 19.9 °F 43% 29.98 in 10.0 mi SSE 9.2 mph - N/A   Mostly Cloudy
1:53 PM 36.0 °F 28.5 °F 28.0 °F 73% 29.99 in 4.0 mi SE 10.4 mph - 0.06 in Rain Rain
2:39 PM 35.1 °F 25.5 °F 30.0 °F 82% 29.89 in 2.5 mi SE 15.0 mph - 0.09 in Rain Rain
2:53 PM 34.0 °F 24.2 °F 30.0 °F 85% 29.92 in 2.5 mi SE 15.0 mph - 0.12 in Rain Rain
3:01 PM 34.0 °F 24.6 °F 30.0 °F 85% 29.86 in 5.0 mi SE 13.8 mph 23.0 mph 0.00 in Rain Light Rain
3:43 PM 34.0 °F 24.6 °F 30.0 °F 85% 29.84 in 2.0 mi SE 13.8 mph 23.0 mph 0.05 in Rain Rain
3:53 PM 34.0 °F 25.0 °F 30.0 °F 85% 29.90 in 3.0 mi SSE 12.7 mph 28.8 mph 0.06 in Rain Light Rain
4:53 PM 35.1 °F 29.3 °F 30.9 °F 85% 29.92 in 7.0 mi SE 6.9 mph - 0.06 in Rain Light Rain
5:53 PM 35.1 °F 28.6 °F 30.9 °F 85% 29.90 in 10.0 mi SE 8.1 mph - 0.00 in   Overcast
6:53 PM 37.0 °F 29.3 °F 28.9 °F 73% 29.88 in 10.0 mi SE 11.5 mph - N/A   Overcast
7:53 PM 39.0 °F 31.8 °F 28.0 °F 65% 29.84 in 10.0 mi SSE 11.5 mph 21.9 mph N/A   Overcast
8:53 PM 39.9 °F 33.4 °F 28.0 °F 63% 29.81 in 10.0 mi SSE 10.4 mph - 0.00 in   Overcast
9:53 PM 41.0 °F 34.7 °F 28.0 °F 60% 29.81 in 10.0 mi SE 10.4 mph - 0.01 in   Overcast
10:53 PM 39.9 °F 33.4 °F 30.9 °F 70% 29.78 in 10.0 mi SE 10.4 mph - 0.04 in   Overcast
11:53 PM 39.0 °F 34.8 °F 32.0 °F 76% 29.77 in 8.0 mi SE 5.8 mph - 0.05 in Rain Light Rain